sat.trackr.live / text

‹ back to catalog

T.MICROSAT-1

NORAD 66766 · 2025-276DE

PAYLOAD ACTIVE UNKNOWN

§ Identity

Operator
Country
ROC
Launch date
2025-11-28
Launch site
AFWTR
Launch vehicle
Mass (kg)
RCS (m²)

External: N2YO · Heavens-Above · Gunter

§ Orbital elements

Epoch: 2026-09-20T10:51:37.391904Z

Period
94.63 min
Inclination
97.4079°
Eccentricity
0.0001450
Mean motion
15.21675900 rev/d
Perigee alt
499.8 km
Apogee alt
501.8 km
Semi-major
6,878.9 km
B*
1.5213e-4
RAAN
335.7047°
Arg perigee
115.1541°
Mean anomaly
244.9845°
Rev number
4,492

§ Raw data

T.MICROSAT-11 66766U 25276DE  26263.45251611  .00003371  00000+0  15213-3 0  99952 66766  97.4079 335.7047 0001450 115.1541 244.9845 15.21675900 44927

JSON: /api/v1/satellites/66766 · /tle

For live sub-satellite position, see the globe view (requires WebGL).

§ Visibility from observer

Set your observer location to see the next 7 days of passes ≥ 10°. The values pass through the URL so the page stays shareable.

No JS? Fill the form by hand. The geolocation button needs JavaScript.